GFSNGP_700_temp_231.txt.gz
Temp
-7 -7 -7 -6 -5 -5 -5 -5 -5 -5 -4 -5 -5 -5 -5 -5 -5 -5 -5 -5 -5 -6 -5 -6 -5 -4 -4 -3 -4 -4 -3 -3 -2 -2 0 2 2 1 2 2 2 2 2 3
-6 -6 -6 -6 -5 -5 -5 -5 -5 -5 -5 -5 -5 -5 -5 -5 -5 -5 -5 -6 -6 -7 -6 -7 -5 -4 -4 -6 -6 -5 -3 -3 -4 -5 -4 -2 0 0 1 1 1 1 1 2
-7 -7 -5 -6 -8 -6 -6 -6 -5 -5 -5 -5 -5 -5 -5 -5 -6 -7 -7 -8 -7 -7 -6 -6 -5 -5 -4 -5 -4 -4 -3 -4 -5 -5 -6 -5 -3 -2 -1 -2 -1 -0 0 1
-8 -7 -12 -7 -8 -8 -6 -7 -6 -5 -5 -6 -6 -5 -7 -8 -8 -7 -7 -7 -7 -7 -7 -7 -7 -6 -5 -5 -4 -5 -5 -4 -5 -4 -4 -4 -4 -3 -2 -2 -3 -2 -1 -0
-8 -8 -8 -8 -8 -8 -8 -8 -8 -8 -7 -7 -7 -6 -6 -8 -8 -7 -7 -7 -7 -6 -6 -6 -6 -6 -6 -6 -5 -5 -5 -4 -4 -4 -4 -4 -4 -3 -3 -2 -2 -2 -2 -1
-8 -8 -9 -8 -8 -8 -8 -9 -9 -9 -9 -8 -7 -6 -7 -8 -8 -7 -7 -7 -7 -7 -6 -6 -6 -6 -6 -6 -6 -5 -5 -5 -5 -4 -4 -4 -4 -4 -4 -4 -3 -2 -2 -2
-9 -9 -9 -9 -7 -8 -8 -9 -9 -9 -9 -8 -7 -7 -7 -7 -7 -7 -6 -6 -6 -6 -6 -6 -6 -6 -5 -5 -5 -5 -5 -5 -5 -5 -5 -5 -4 -4 -4 -4 -4 -4 -3 -3
-9 -9 -9 -9 -8 -9 -9 -10 -9 -9 -8 -8 -7 -7 -7 -7 -6 -6 -6 -6 -6 -6 -6 -6 -6 -6 -6 -6 -6 -5 -5 -5 -5 -5 -5 -5 -5 -5 -4 -4 -4 -3 -3 -3
-9 -9 -9 -9 -9 -9 -9 -10 -9 -8 -8 -8 -8 -7 -7 -7 -7 -7 -6 -6 -6 -6 -6 -6 -6 -7 -7 -7 -6 -6 -6 -6 -6 -5 -5 -6 -5 -5 -5 -5 -4 -4 -4 -4
-9 -9 -9 -8 -8 -9 -9 -9 -9 -9 -8 -8 -8 -7 -7 -7 -7 -7 -7 -7 -7 -7 -7 -7 -8 -8 -8 -8 -7 -7 -7 -6 -6 -6 -6 -5 -6 -6 -6 -5 -5 -5 -4 -4
-9 -9 -9 -9 -9 -9 -9 -10 -10 -9 -9 -8 -8 -8 -7 -7 -7 -7 -7 -8 -8 -8 -8 -8 -8 -9 -9 -9 -9 -9 -9 -8 -8 -7 -6 -6 -6 -5 -5 -6 -6 -6 -5 -5
-9 -10 -10 -10 -10 -10 -10 -10 -9 -9 -9 -9 -8 -8 -8 -8 -8 -8 -8 -8 -8 -9 -9 -9 -9 -9 -10 -10 -10 -10 -10 -9 -9 -8 -8 -7 -7 -6 -6 -6 -6 -6 -6 -6
-10 -10 -10 -10 -10 -11 -10 -10 -10 -9 -9 -9 -9 -9 -8 -8 -8 -8 -8 -8 -9 -9 -9 -9 -9 -10 -10 -10 -10 -10 -10 -10 -9 -9 -8 -8 -7 -7 -6 -6 -6 -7 -6 -6
-9 -9 -10 -11 -11 -11 -11 -10 -10 -10 -9 -9 -9 -9 -9 -9 -9 -9 -8 -8 -9 -9 -9 -10 -11 -11 -11 -11 -11 -11 -11 -10 -10 -10 -9 -8 -8 -8 -8 -8 -7 -6 -7 -7
-9 -9 -10 -11 -11 -11 -11 -10 -10 -10 -10 -10 -10 -9 -9 -9 -9 -9 -9 -9 -9 -9 -9 -10 -11 -11 -11 -11 -11 -11 -10 -11 -10 -10 -9 -9 -9 -9 -8 -8 -8 -8 -8 -8
-10 -10 -10 -10 -11 -11 -11 -10 -10 -10 -10 -10 -10 -10 -10 -10 -10 -10 -10 -10 -9 -9 -10 -10 -11 -11 -11 -11 -11 -11 -11 -11 -11 -11 -10 -9 -9 -9 -8 -8 -8 -9 -9 -8
-10 -10 -10 -10 -11 -11 -11 -11 -11 -10 -10 -10 -10 -10 -10 -10 -10 -11 -11 -10 -10 -10 -10 -10 -10 -11 -11 -12 -12 -11 -11 -11 -11 -10 -10 -10 -10 -10 -10 -10 -10 -10 -9 -10
-10 -10 -10 -10 -11 -11 -11 -11 -11 -11 -11 -11 -11 -11 -11 -11 -11 -11 -11 -11 -11 -11 -11 -11 -11 -11 -11 -12 -12 -12 -11 -11 -11 -11 -10 -10 -11 -11 -11 -11 -11 -11 -11 -11
-10 -11 -11 -11 -11 -12 -12 -12 -12 -12 -12 -12 -12 -12 -12 -12 -12 -12 -12 -11 -11 -11 -11 -11 -11 -11 -11 -11 -12 -12 -12 -12 -11 -11 -11 -10 -10 -11 -11 -11 -12 -11 -12 -11
-11 -11 -11 -12 -12 -12 -12 -12 -12 -12 -12 -13 -13 -13 -13 -13 -13 -13 -13 -12 -12 -12 -11 -11 -11 -11 -11 -11 -12 -12 -12 -12 -12 -11 -11 -11 -10 -10 -11 -11 -11 -11 -11 -10
-11 -11 -12 -11 -11 -12 -12 -12 -12 -12 -12 -13 -13 -14 -14 -14 -14 -14 -14 -13 -13 -12 -12 -12 -12 -12 -11 -11 -11 -12 -12 -12 -12 -11 -11 -11 -11 -10 -10 -10 -10 -10 -10 -10
-12 -12 -11 -11 -11 -11 -12 -12 -12 -12 -13 -13 -14 -14 -15 -15 -16 -15 -15 -14 -14 -13 -13 -12 -12 -12 -12 -11 -11 -11 -12 -12 -12 -12 -12 -11 -11 -11 -11 -10 -10 -10 -10 -9
-12 -11 -11 -11 -11 -11 -11 -11 -12 -12 -13 -14 -14 -14 -15 -15 -15 -15 -15 -15 -14 -14 -13 -13 -12 -13 -12 -12 -11 -11 -11 -11 -12 -12 -12 -12 -12 -11 -11 -11 -11 -10 -10 -10
-12 -11 -11 -11 -11 -11 -11 -12 -12 -13 -13 -14 -15 -16 -16 -16 -15 -15 -15 -15 -15 -14 -14 -13 -13 -13 -13 -12 -12 -11 -11 -11 -11 -12 -12 -12 -12 -12 -11 -11 -11 -10 -10 -10
-12 -12 -11 -11 -11 -11 -11 -12 -12 -13 -14 -15 -16 -16 -16 -16 -16 -16 -16 -15 -15 -14 -14 -14 -14 -14 -13 -13 -12 -12 -12 -11 -11 -11 -11 -12 -12 -12 -12 -12 -12 -11 -11 -11
-12 -12 -12 -12 -11 -11 -12 -12 -13 -14 -15 -16 -16 -16 -16 -16 -16 -16 -16 -16 -16 -15 -15 -15 -14 -14 -14 -13 -13 -12 -12 -12 -11 -11 -11 -11 -10 -10 -10 -10 -10 -10 -9 -9
-12 -12 -12 -12 -11 -12 -12 -13 -14 -15 -15 -16 -16 -16 -16 -16 -16 -16 -16 -16 -16 -16 -15 -15 -15 -14 -14 -14 -13 -13 -12 -12 -11 -11 -11 -11 -10 -10 -10 -10 -10 -9 -9 -8

GFSNGP_700_temp_234.txt.gz
Temp
-8 -7 -8 -8 -7 -6 -5 -5 -5 -5 -5 -6 -5 -6 -6 -6 -6 -6 -6 -6 -6 -6 -5 -7 -6 -5 -5 -5 -6 -5 -3 -2 1 3 4 4 4 4 4 4 3 4 3 3
-7 -7 -6 -7 -7 -7 -6 -5 -5 -5 -6 -6 -6 -6 -7 -7 -7 -7 -8 -7 -8 -7 -6 -8 -7 -7 -7 -7 -7 -5 -4 -4 -3 -3 -1 0 1 0 3 2 2 3 2 3
-8 -7 -5 -7 -8 -8 -8 -8 -7 -8 -8 -6 -6 -7 -8 -8 -7 -7 -8 -8 -8 -7 -5 -5 -5 -5 -5 -5 -5 -5 -5 -6 -6 -5 -5 -4 -3 -2 -3 -4 -2 -1 0 -0
-8 -7 -11 -9 -8 -8 -8 -9 -9 -9 -8 -8 -8 -8 -8 -9 -9 -9 -9 -8 -8 -8 -7 -7 -5 -5 -6 -5 -5 -4 -4 -4 -4 -4 -5 -6 -6 -5 -4 -4 -4 -3 -2 -3
-9 -8 -8 -8 -8 -8 -8 -9 -9 -9 -9 -8 -9 -8 -7 -8 -8 -8 -8 -8 -7 -7 -6 -6 -6 -6 -6 -5 -5 -5 -5 -5 -4 -4 -4 -4 -4 -4 -4 -4 -5 -6 -6 -4
-9 -9 -9 -9 -8 -8 -8 -10 -10 -10 -9 -9 -8 -7 -7 -7 -7 -8 -8 -7 -7 -7 -6 -6 -6 -6 -6 -5 -5 -5 -5 -5 -5 -5 -5 -4 -4 -4 -3 -3 -4 -4 -3 -3
-9 -9 -9 -9 -9 -8 -9 -10 -10 -9 -9 -9 -8 -9 -9 -8 -8 -8 -7 -7 -7 -7 -7 -6 -6 -6 -6 -6 -6 -5 -5 -5 -5 -5 -5 -5 -5 -4 -4 -4 -4 -4 -3 -3
-9 -9 -10 -9 -8 -9 -10 -10 -10 -9 -9 -8 -8 -8 -8 -8 -7 -7 -7 -6 -6 -6 -6 -6 -6 -6 -6 -6 -6 -6 -6 -6 -6 -6 -6 -5 -5 -5 -5 -4 -4 -4 -4 -4
-9 -9 -9 -9 -10 -10 -10 -10 -10 -9 -8 -8 -8 -8 -8 -7 -7 -7 -7 -7 -7 -7 -7 -7 -7 -7 -7 -7 -7 -7 -7 -7 -7 -6 -6 -6 -6 -6 -5 -5 -5 -5 -4 -4
-9 -9 -9 -9 -9 -10 -10 -10 -10 -10 -9 -9 -8 -8 -8 -8 -7 -7 -7 -7 -7 -7 -7 -7 -7 -8 -8 -7 -7 -8 -8 -8 -8 -8 -7 -7 -6 -6 -6 -5 -5 -5 -5 -4
-9 -9 -9 -10 -10 -10 -10 -10 -10 -10 -9 -9 -9 -8 -8 -8 -8 -7 -7 -7 -7 -7 -7 -7 -8 -8 -8 -8 -8 -8 -9 -9 -9 -9 -8 -8 -7 -7 -6 -6 -5 -5 -5 -5
-10 -10 -10 -10 -10 -11 -11 -11 -11 -10 -10 -9 -9 -9 -9 -8 -8 -8 -8 -8 -8 -8 -8 -8 -8 -9 -9 -9 -10 -10 -10 -10 -10 -9 -8 -8 -7 -7 -7 -6 -6 -6 -6 -5
-10 -10 -10 -10 -11 -11 -11 -11 -11 -10 -10 -10 -10 -10 -9 -9 -9 -8 -8 -8 -8 -8 -8 -8 -8 -9 -9 -10 -10 -10 -11 -11 -10 -10 -10 -9 -8 -7 -5 -6 -6 -5 -6 -6
-10 -10 -9 -10 -11 -11 -11 -11 -11 -10 -10 -10 -10 -10 -9 -9 -9 -9 -9 -9 -9 -9 -9 -9 -9 -9 -9 -10 -10 -11 -11 -11 -11 -11 -10 -10 -9 -8 -7 -6 -6 -6 -7 -7
-10 -9 -10 -10 -11 -11 -11 -11 -10 -10 -10 -10 -10 -10 -10 -10 -10 -10 -10 -10 -10 -10 -10 -10 -9 -9 -9 -10 -10 -11 -11 -11 -11 -11 -11 -10 -9 -9 -8 -7 -7 -7 -7 -7
-9 -9 -10 -10 -10 -10 -11 -11 -11 -11 -11 -11 -11 -11 -11 -11 -11 -11 -10 -10 -10 -10 -10 -10 -10 -10 -10 -10 -10 -10 -11 -11 -11 -11 -10 -10 -10 -9 -8 -8 -8 -8 -8 -8
-10 -10 -10 -10 -10 -11 -11 -11 -11 -11 -11 -11 -11 -11 -11 -11 -11 -12 -12 -11 -11 -11 -11 -11 -11 -10 -11 -10 -10 -11 -11 -11 -12 -11 -10 -10 -10 -10 -10 -11 -11 -10 -10 -10
-10 -10 -10 -11 -11 -11 -12 -12 -12 -12 -12 -12 -12 -12 -12 -12 -12 -13 -13 -13 -12 -12 -12 -12 -12 -11 -11 -11 -11 -11 -11 -12 -12 -12 -11 -11 -11 -11 -10 -11 -11 -11 -11 -11
-10 -11 -11 -11 -11 -12 -11 -11 -11 -11 -12 -12 -12 -12 -12 -13 -13 -13 -13 -14 -14 -13 -13 -13 -12 -12 -11 -11 -11 -11 -11 -12 -12 -11 -11 -11 -11 -11 -10 -11 -11 -12 -12 -12
-11 -11 -11 -12 -11 -11 -11 -11 -11 -11 -12 -12 -12 -12 -13 -14 -14 -15 -15 -15 -15 -15 -14 -14 -13 -12 -12 -12 -12 -11 -11 -12 -12 -12 -12 -12 -12 -11 -10 -11 -12 -12 -11 -12
-11 -12 -12 -11 -11 -11 -11 -11 -11 -11 -11 -12 -12 -13 -13 -14 -14 -15 -16 -16 -15 -15 -15 -14 -14 -13 -13 -12 -12 -11 -12 -12 -12 -12 -12 -12 -12 -11 -11 -10 -11 -11 -12 -11
-11 -11 -11 -11 -11 -11 -11 -11 -11 -11 -11 -12 -12 -13 -14 -15 -15 -15 -15 -16 -15 -15 -15 -14 -14 -13 -13 -12 -12 -12 -12 -12 -12 -12 -12 -12 -12 -12 -11 -11 -11 -11 -11 -11
-12 -12 -12 -11 -11 -11 -11 -11 -11 -11 -12 -12 -13 -14 -15 -16 -16 -16 -16 -16 -16 -16 -15 -15 -14 -14 -14 -13 -13 -12 -12 -12 -12 -12 -12 -12 -13 -12 -12 -11 -11 -11 -10 -10
-12 -12 -12 -12 -11 -11 -11 -11 -12 -12 -12 -13 -14 -15 -15 -16 -16 -16 -16 -16 -16 -16 -16 -15 -15 -14 -14 -14 -13 -13 -12 -13 -12 -12 -12 -12 -12 -13 -12 -12 -12 -11 -11 -11
-13 -12 -12 -12 -12 -11 -12 -12 -12 -12 -13 -14 -15 -15 -16 -16 -16 -16 -16 -16 -17 -17 -16 -16 -15 -15 -15 -14 -14 -13 -13 -13 -12 -12 -13 -12 -13 -12 -12 -12 -12 -12 -11 -11
-13 -13 -13 -13 -12 -12 -12 -12 -12 -13 -13 -14 -15 -16 -16 -16 -16 -16 -16 -16 -16 -17 -17 -16 -16 -15 -15 -15 -14 -14 -13 -13 -13 -12 -12 -12 -12 -12 -12 -12 -12 -12 -12 -11
-13 -13 -13 -13 -12 -12 -12 -12 -13 -13 -14 -14 -15 -16 -16 -16 -16 -16 -16 -16 -16 -16 -16 -16 -16 -15 -15 -15 -14 -14 -14 -13 -13 -12 -12 -12 -11 -11 -11 -11 -12 -12 -11 -11

GFSNGP_700_temp_237.txt.gz
Temp
-9 -8 -9 -8 -8 -9 -8 -8 -8 -8 -8 -8 -8 -8 -8 -8 -8 -8 -8 -8 -7 -8 -7 -7 -8 -8 -6 -6 -5 -4 -0 2 3 3 3 4 4 4 4 4 4 4 3 3
-7 -8 -8 -8 -8 -9 -9 -9 -9 -9 -9 -9 -8 -9 -8 -9 -9 -8 -8 -7 -6 -6 -6 -7 -8 -8 -6 -7 -8 -7 -5 -5 -4 -4 -1 -3 3 4 3 4 4 3 2 2
-8 -8 -7 -8 -9 -9 -9 -9 -9 -9 -9 -8 -8 -9 -9 -9 -9 -9 -9 -8 -8 -7 -6 -6 -5 -5 -5 -5 -5 -5 -7 -8 -8 -7 -7 -6 -3 -3 -0 1 2 2 2 3
-9 -8 -8 -9 -9 -8 -9 -10 -10 -10 -10 -9 -9 -9 -9 -9 -8 -8 -8 -8 -7 -7 -7 -7 -6 -5 -5 -4 -5 -4 -4 -5 -6 -6 -6 -7 -7 -7 -5 -2 -2 -1 2 2
-9 -9 -8 -9 -9 -9 -10 -10 -11 -11 -10 -10 -9 -9 -7 -8 -8 -8 -8 -7 -7 -7 -7 -7 -7 -6 -6 -5 -5 -5 -4 -5 -4 -4 -5 -5 -6 -6 -6 -5 -4 -3 -3 -3
-9 -9 -8 -10 -9 -9 -8 -10 -11 -11 -9 -9 -9 -8 -8 -8 -8 -8 -8 -8 -7 -7 -7 -6 -6 -6 -6 -6 -6 -6 -5 -5 -5 -5 -5 -4 -4 -4 -5 -5 -5 -5 -4 -4
-9 -10 -9 -9 -9 -8 -9 -10 -11 -10 -9 -9 -9 -9 -9 -9 -8 -8 -8 -8 -8 -8 -7 -7 -7 -6 -6 -6 -6 -6 -6 -6 -6 -5 -5 -5 -5 -5 -4 -4 -4 -4 -4 -4
-9 -10 -9 -9 -9 -10 -10 -11 -11 -10 -9 -9 -9 -9 -8 -8 -8 -8 -8 -8 -8 -8 -7 -7 -7 -6 -6 -6 -7 -6 -6 -6 -6 -6 -6 -6 -5 -5 -5 -5 -5 -4 -4 -4
-9 -10 -10 -10 -10 -10 -10 -10 -10 -10 -10 -10 -10 -9 -9 -9 -9 -8 -8 -8 -8 -7 -7 -7 -7 -7 -7 -7 -7 -7 -7 -7 -6 -6 -6 -6 -6 -6 -5 -5 -5 -4 -4 -4
-9 -9 -9 -10 -10 -10 -11 -11 -11 -10 -10 -10 -10 -10 -9 -9 -9 -8 -8 -8 -8 -8 -8 -8 -8 -7 -7 -7 -7 -7 -7 -7 -7 -7 -7 -7 -7 -6 -6 -6 -6 -5 -4 -4
-9 -9 -9 -9 -10 -10 -11 -11 -11 -10 -10 -10 -9 -9 -9 -9 -9 -9 -9 -8 -8 -8 -8 -8 -8 -8 -8 -7 -7 -7 -8 -8 -8 -8 -8 -8 -8 -8 -7 -7 -6 -6 -5 -5
-9 -10 -10 -10 -9 -10 -10 -11 -11 -11 -10 -10 -10 -10 -10 -9 -9 -9 -9 -9 -9 -8 -8 -8 -8 -8 -8 -8 -8 -8 -8 -8 -8 -9 -9 -9 -8 -7 -7 -7 -7 -6 -6 -5
-10 -10 -10 -9 -9 -10 -11 -11 -11 -11 -10 -10 -10 -10 -10 -10 -9 -9 -9 -9 -9 -9 -9 -9 -9 -9 -9 -8 -9 -9 -8 -8 -8 -9 -9 -9 -9 -8 -7 -7 -7 -7 -7 -6
-10 -10 -9 -9 -10 -10 -11 -11 -11 -10 -10 -10 -10 -10 -10 -10 -10 -10 -10 -10 -9 -9 -10 -10 -10 -10 -10 -10 -10 -9 -9 -10 -10 -10 -9 -9 -9 -9 -8 -7 -6 -6 -7 -7
-10 -10 -9 -10 -10 -10 -10 -11 -11 -11 -11 -11 -11 -11 -11 -10 -10 -10 -10 -10 -10 -10 -11 -11 -11 -11 -11 -10 -10 -10 -10 -10 -10 -11 -11 -10 -10 -9 -9 -8 -7 -7 -7 -7
-10 -10 -10 -10 -10 -11 -11 -11 -11 -11 -11 -11 -11 -11 -11 -11 -11 -11 -11 -11 -11 -11 -12 -12 -12 -11 -11 -11 -10 -10 -10 -10 -10 -11 -11 -11 -10 -10 -9 -8 -8 -8 -8 -7
-10 -10 -10 -10 -10 -11 -11 -11 -11 -11 -11 -11 -11 -11 -11 -11 -11 -11 -11 -12 -12 -13 -13 -13 -13 -13 -12 -12 -11 -11 -11 -11 -11 -11 -11 -11 -11 -10 -9 -9 -9 -9 -8 -8
-10 -10 -10 -11 -11 -11 -11 -11 -11 -11 -11 -11 -11 -11 -11 -11 -12 -12 -12 -13 -13 -14 -15 -14 -14 -14 -13 -13 -12 -11 -11 -11 -11 -11 -12 -12 -12 -12 -11 -10 -10 -10 -10 -10
-10 -10 -11 -11 -11 -11 -11 -11 -11 -11 -10 -10 -10 -11 -11 -12 -12 -12 -13 -13 -14 -15 -15 -15 -15 -14 -14 -13 -13 -12 -12 -12 -11 -12 -12 -12 -12 -12 -11 -11 -10 -11 -11 -12
-10 -11 -11 -11 -11 -11 -11 -11 -11 -11 -11 -10 -11 -11 -11 -12 -13 -13 -14 -14 -15 -15 -16 -15 -15 -14 -14 -14 -13 -13 -12 -12 -12 -12 -12 -12 -12 -11 -11 -10 -10 -11 -11 -12
-11 -11 -11 -11 -11 -11 -11 -11 -11 -11 -11 -11 -11 -11 -12 -13 -14 -15 -15 -15 -15 -16 -16 -15 -15 -15 -14 -14 -13 -13 -13 -12 -12 -12 -12 -12 -12 -12 -12 -11 -11 -11 -11 -12
-11 -12 -12 -12 -12 -12 -12 -11 -11 -11 -11 -11 -12 -12 -13 -14 -14 -15 -16 -16 -16 -16 -16 -16 -15 -15 -15 -14 -14 -14 -13 -13 -12 -12 -12 -13 -13 -12 -12 -11 -11 -11 -11 -11
-12 -12 -12 -12 -12 -12 -12 -12 -11 -11 -11 -12 -12 -13 -13 -15 -15 -15 -15 -16 -16 -16 -16 -16 -16 -15 -15 -15 -14 -14 -14 -13 -13 -12 -13 -13 -13 -12 -12 -12 -12 -11 -11 -11
-12 -12 -13 -13 -13 -13 -12 -12 -12 -12 -12 -12 -12 -13 -13 -14 -15 -16 -16 -16 -16 -16 -17 -17 -16 -16 -15 -15 -15 -14 -14 -13 -13 -13 -12 -13 -13 -13 -13 -12 -12 -12 -11 -11
-12 -13 -13 -13 -13 -13 -13 -12 -12 -12 -12 -13 -13 -14 -15 -15 -16 -16 -16 -16 -16 -16 -16 -16 -16 -16 -15 -15 -15 -14 -14 -14 -13 -13 -12 -13 -13 -13 -13 -13 -13 -12 -12 -12
-13 -13 -13 -13 -13 -13 -13 -12 -12 -12 -13 -13 -14 -14 -15 -16 -16 -16 -16 -16 -16 -16 -16 -16 -16 -15 -15 -15 -15 -15 -14 -14 -13 -13 -13 -12 -13 -13 -13 -12 -13 -13 -12 -12
-13 -13 -13 -13 -13 -13 -13 -13 -12 -12 -13 -13 -14 -14 -15 -15 -16 -16 -16 -16 -16 -16 -16 -16 -16 -16 -15 -15 -15 -15 -15 -14 -14 -13 -13 -12 -12 -13 -12 -13 -12 -12 -13 -12

GFSNGP_700_temp_240.txt.gz
Temp
-8 -8 -8 -9 -9 -9 -9 -9 -9 -9 -9 -9 -9 -9 -10 -9 -9 -9 -8 -7 -7 -7 -7 -7 -8 -9 -9 -9 -7 -6 -3 -1 1 2 1 4 4 4 5 5 4 5 5 4
-7 -6 -7 -8 -9 -8 -9 -9 -9 -9 -10 -9 -9 -9 -9 -8 -8 -8 -8 -8 -7 -6 -6 -5 -5 -5 -6 -8 -8 -8 -5 -6 -5 -3 -0 -1 4 3 5 4 4 4 5 4
-6 -6 -6 -7 -9 -10 -9 -10 -11 -11 -11 -9 -9 -9 -8 -8 -8 -8 -8 -8 -7 -7 -6 -6 -6 -5 -5 -5 -5 -6 -7 -7 -7 -6 -6 -5 -0 2 2 4 3 4 3 4
-7 -6 -6 -9 -9 -9 -10 -10 -10 -10 -9 -10 -10 -10 -9 -8 -8 -8 -8 -8 -8 -7 -7 -7 -7 -6 -6 -5 -5 -4 -5 -5 -5 -5 -6 -7 -5 -6 -2 -2 -1 0 1 1
-7 -6 -7 -8 -9 -9 -10 -10 -10 -10 -9 -9 -9 -10 -9 -8 -8 -8 -8 -8 -8 -8 -8 -7 -7 -6 -6 -6 -6 -6 -5 -5 -5 -4 -4 -4 -5 -6 -6 -6 -5 -6 -1 -6
-8 -6 -7 -9 -9 -9 -9 -9 -11 -10 -9 -9 -8 -10 -9 -8 -8 -8 -8 -8 -8 -8 -8 -7 -6 -6 -6 -6 -6 -6 -6 -6 -5 -5 -5 -5 -5 -4 -5 -5 -5 -5 -7 -6
-9 -8 -8 -10 -9 -9 -8 -10 -10 -10 -9 -9 -9 -9 -9 -9 -9 -8 -8 -8 -8 -7 -7 -7 -7 -7 -7 -6 -6 -6 -6 -6 -6 -6 -6 -6 -6 -5 -4 -4 -4 -4 -4 -5
-9 -8 -8 -10 -9 -10 -10 -10 -10 -10 -10 -9 -9 -9 -9 -9 -8 -8 -8 -8 -8 -8 -7 -7 -7 -7 -7 -7 -7 -7 -7 -7 -7 -6 -6 -6 -6 -5 -5 -5 -4 -4 -4 -4
-9 -9 -10 -10 -10 -10 -10 -11 -11 -10 -10 -10 -10 -10 -9 -9 -9 -9 -8 -8 -8 -8 -8 -8 -8 -7 -7 -7 -7 -7 -7 -7 -7 -7 -6 -6 -6 -7 -6 -6 -5 -4 -4 -4
-9 -9 -10 -10 -10 -11 -11 -11 -11 -11 -10 -10 -10 -10 -10 -9 -9 -9 -9 -9 -8 -8 -8 -8 -8 -8 -8 -8 -7 -7 -7 -7 -7 -7 -7 -7 -6 -7 -7 -7 -7 -6 -6 -5
-9 -9 -9 -10 -10 -9 -10 -10 -11 -10 -10 -10 -10 -10 -10 -10 -10 -9 -9 -9 -9 -9 -8 -8 -8 -8 -8 -8 -8 -7 -7 -7 -7 -7 -7 -7 -7 -7 -7 -7 -7 -7 -6 -6
-8 -9 -9 -10 -9 -9 -10 -10 -11 -11 -11 -11 -11 -11 -10 -10 -10 -10 -9 -9 -9 -10 -9 -9 -9 -9 -9 -9 -9 -8 -8 -8 -7 -7 -7 -7 -7 -7 -7 -7 -7 -7 -7 -6
-9 -9 -9 -9 -9 -9 -10 -10 -11 -11 -11 -11 -11 -11 -10 -10 -10 -10 -10 -10 -10 -10 -10 -10 -10 -10 -10 -10 -9 -9 -9 -9 -8 -8 -8 -8 -8 -7 -7 -7 -7 -7 -7 -7
-9 -9 -10 -10 -9 -9 -10 -10 -10 -11 -11 -11 -11 -11 -11 -10 -11 -11 -11 -10 -10 -10 -10 -10 -11 -11 -11 -11 -11 -11 -11 -10 -10 -9 -9 -9 -9 -8 -8 -7 -7 -7 -7 -7
-9 -9 -10 -10 -10 -10 -10 -10 -11 -11 -11 -11 -11 -11 -10 -10 -10 -10 -11 -11 -11 -11 -12 -12 -12 -12 -12 -12 -12 -12 -11 -11 -10 -10 -10 -10 -10 -9 -9 -8 -8 -7 -7 -7
-9 -10 -10 -10 -10 -10 -10 -11 -11 -11 -11 -10 -10 -10 -10 -10 -10 -10 -10 -10 -11 -11 -12 -12 -13 -13 -13 -13 -13 -12 -12 -11 -11 -11 -11 -11 -10 -10 -10 -9 -8 -8 -8 -7
-10 -10 -10 -10 -10 -10 -11 -11 -11 -11 -10 -10 -10 -10 -10 -10 -10 -10 -11 -11 -11 -12 -13 -13 -14 -15 -14 -14 -14 -13 -13 -12 -12 -11 -11 -11 -11 -10 -10 -9 -9 -9 -9 -8
-10 -10 -10 -10 -10 -11 -11 -11 -11 -10 -10 -10 -10 -10 -10 -10 -10 -10 -11 -11 -12 -12 -13 -14 -15 -15 -15 -14 -14 -14 -13 -13 -12 -12 -12 -12 -11 -11 -11 -10 -10 -9 -9 -9
-10 -10 -10 -11 -11 -11 -11 -11 -11 -11 -10 -10 -10 -10 -10 -10 -11 -11 -11 -12 -13 -13 -14 -15 -15 -15 -15 -15 -14 -14 -13 -13 -12 -12 -12 -12 -12 -12 -11 -11 -11 -10 -9 -9
-10 -10 -11 -11 -11 -11 -11 -11 -11 -11 -10 -10 -10 -11 -11 -11 -11 -12 -13 -13 -14 -15 -15 -15 -15 -15 -15 -15 -14 -14 -14 -13 -12 -12 -12 -12 -12 -12 -12 -12 -11 -11 -10 -10
-11 -11 -11 -11 -11 -12 -12 -12 -11 -11 -11 -11 -11 -11 -11 -11 -12 -13 -13 -14 -15 -15 -15 -16 -16 -16 -15 -15 -15 -14 -14 -13 -13 -12 -12 -12 -13 -12 -12 -12 -12 -11 -10 -10
-11 -11 -12 -12 -12 -12 -12 -12 -12 -11 -11 -11 -11 -12 -12 -12 -13 -14 -14 -14 -15 -15 -15 -16 -16 -16 -16 -15 -15 -15 -14 -14 -13 -13 -12 -13 -13 -13 -13 -12 -12 -11 -11 -10
-11 -12 -12 -12 -12 -13 -13 -13 -13 -12 -12 -12 -12 -12 -13 -13 -13 -13 -14 -15 -15 -15 -15 -16 -16 -16 -16 -15 -15 -15 -14 -14 -14 -13 -13 -13 -13 -13 -13 -13 -12 -12 -12 -11
-12 -12 -12 -12 -13 -13 -13 -13 -13 -12 -12 -12 -12 -12 -13 -13 -14 -14 -15 -15 -15 -15 -15 -15 -15 -15 -15 -15 -15 -15 -14 -14 -14 -13 -13 -13 -13 -13 -13 -13 -13 -13 -12 -12
-12 -12 -12 -13 -13 -12 -13 -13 -13 -12 -12 -12 -12 -13 -13 -13 -13 -14 -15 -15 -15 -15 -15 -15 -15 -15 -15 -15 -15 -15 -15 -14 -14 -14 -13 -13 -13 -13 -13 -13 -13 -13 -13 -13
-12 -12 -13 -13 -13 -13 -13 -13 -13 -13 -13 -13 -13 -13 -13 -14 -14 -14 -15 -15 -16 -16 -16 -16 -15 -15 -15 -15 -15 -15 -15 -15 -14 -14 -14 -13 -13 -13 -13 -13 -13 -13 -13 -13
-11 -11 -12 -12 -13 -12 -13 -13 -13 -13 -13 -13 -13 -13 -14 -14 -14 -14 -15 -15 -16 -16 -16 -16 -16 -16 -16 -15 -15 -15 -15 -15 -15 -14 -14 -14 -13 -13 -13 -13 -13 -13 -13 -13

GFSNGP_700_temp_246.txt.gz
Temp
-4 -6 -6 -7 -8 -8 -7 -8 -8 -9 -9 -8 -8 -9 -9 -9 -8 -7 -7 -7 -7 -7 -7 -7 -7 -7 -7 -6 -7 -8 -8 -5 -4 -3 -0 1 2 1 1 2 3 3 3 4
-5 -5 -6 -7 -8 -8 -8 -8 -9 -9 -9 -8 -9 -9 -8 -8 -7 -8 -8 -7 -7 -7 -7 -6 -7 -7 -6 -6 -6 -6 -7 -7 -9 -8 -4 -5 -1 1 1 2 2 2 3 3
-4 -4 -6 -6 -8 -8 -9 -9 -9 -9 -9 -9 -8 -9 -8 -8 -7 -8 -8 -7 -7 -7 -7 -7 -6 -7 -6 -6 -6 -6 -5 -5 -6 -6 -7 -7 -6 -5 -2 -2 -1 2 1 3
-5 -5 -6 -7 -7 -8 -8 -8 -8 -8 -8 -8 -8 -8 -9 -8 -7 -7 -8 -8 -7 -7 -7 -7 -7 -7 -7 -7 -6 -6 -6 -6 -5 -5 -5 -6 -6 -6 -6 -4 -3 -3 -2 -1
-5 -5 -7 -6 -7 -7 -8 -8 -8 -8 -8 -9 -9 -8 -8 -8 -9 -8 -8 -8 -8 -8 -8 -8 -7 -7 -7 -7 -7 -7 -6 -6 -6 -6 -6 -5 -5 -5 -5 -5 -6 -4 -3 -4
-6 -5 -5 -7 -7 -7 -8 -8 -8 -8 -8 -9 -9 -9 -10 -9 -9 -9 -9 -9 -8 -8 -8 -8 -8 -8 -7 -7 -7 -7 -7 -7 -6 -6 -6 -6 -6 -5 -5 -5 -4 -5 -6 -3
-7 -6 -6 -7 -7 -6 -7 -8 -8 -8 -9 -10 -10 -10 -11 -11 -10 -10 -10 -10 -9 -9 -9 -8 -8 -8 -8 -8 -8 -7 -7 -7 -7 -7 -7 -7 -6 -6 -6 -5 -5 -6 -5 -5
-6 -7 -6 -7 -8 -8 -8 -8 -8 -9 -9 -10 -10 -11 -11 -11 -11 -10 -10 -11 -10 -9 -9 -9 -9 -9 -9 -8 -8 -8 -8 -7 -7 -7 -7 -7 -6 -7 -6 -6 -6 -5 -5 -5
-7 -7 -7 -7 -8 -8 -8 -8 -9 -9 -10 -10 -10 -11 -11 -11 -12 -12 -12 -12 -11 -10 -9 -9 -9 -9 -9 -9 -9 -9 -9 -8 -8 -8 -8 -7 -7 -7 -7 -6 -6 -5 -5 -5
-7 -7 -7 -7 -8 -8 -8 -9 -9 -9 -10 -10 -11 -11 -11 -11 -12 -12 -12 -12 -12 -11 -9 -9 -9 -9 -9 -9 -9 -9 -9 -9 -9 -8 -8 -8 -7 -7 -7 -7 -7 -6 -6 -5
-7 -7 -7 -7 -8 -8 -9 -8 -9 -10 -10 -11 -11 -11 -11 -12 -12 -12 -13 -12 -12 -11 -9 -10 -9 -9 -9 -9 -9 -9 -9 -9 -10 -9 -9 -9 -8 -8 -8 -8 -8 -8 -7 -6
-7 -7 -7 -7 -8 -8 -9 -9 -9 -10 -10 -11 -11 -11 -12 -12 -12 -12 -11 -11 -10 -10 -10 -9 -9 -10 -10 -10 -10 -10 -10 -10 -10 -10 -10 -10 -10 -9 -10 -10 -9 -9 -8 -8
-7 -7 -7 -8 -8 -9 -9 -10 -10 -10 -10 -11 -11 -11 -11 -11 -11 -10 -10 -9 -9 -10 -10 -10 -11 -11 -10 -10 -11 -12 -11 -11 -11 -11 -11 -11 -11 -11 -10 -10 -10 -9 -9 -8
-7 -8 -8 -8 -9 -9 -10 -10 -10 -11 -11 -11 -11 -11 -10 -10 -9 -10 -9 -9 -9 -9 -9 -10 -10 -11 -12 -12 -12 -12 -12 -12 -12 -13 -12 -12 -12 -11 -11 -10 -10 -9 -9 -9
-7 -8 -8 -8 -9 -9 -10 -10 -10 -11 -10 -10 -10 -10 -10 -10 -10 -9 -9 -9 -10 -10 -10 -10 -11 -11 -12 -13 -14 -14 -14 -13 -14 -13 -13 -13 -12 -12 -11 -11 -10 -10 -9 -9
-8 -8 -8 -9 -9 -10 -10 -10 -10 -10 -10 -10 -10 -10 -10 -10 -10 -10 -10 -10 -10 -10 -10 -11 -11 -12 -13 -14 -14 -15 -14 -14 -14 -14 -13 -13 -12 -12 -12 -11 -11 -10 -10 -9
-9 -9 -9 -9 -10 -10 -10 -10 -10 -11 -11 -11 -11 -11 -10 -10 -10 -10 -10 -10 -11 -11 -11 -12 -12 -13 -14 -15 -15 -15 -15 -15 -14 -14 -14 -13 -13 -12 -12 -12 -11 -11 -10 -10
-9 -9 -9 -9 -9 -10 -10 -10 -11 -11 -11 -11 -11 -11 -11 -10 -10 -10 -11 -11 -11 -12 -12 -13 -13 -14 -14 -14 -15 -15 -15 -15 -15 -14 -14 -13 -13 -13 -12 -12 -12 -11 -11 -11
-9 -9 -9 -9 -9 -10 -10 -11 -11 -11 -12 -12 -12 -11 -11 -11 -11 -11 -11 -11 -11 -12 -13 -13 -14 -14 -14 -14 -15 -15 -15 -15 -15 -14 -14 -14 -13 -13 -13 -13 -13 -12 -12 -11
-9 -9 -9 -10 -10 -10 -10 -11 -11 -12 -12 -12 -12 -11 -11 -11 -11 -11 -12 -12 -12 -12 -13 -14 -14 -14 -14 -14 -14 -14 -15 -15 -15 -14 -14 -14 -14 -14 -14 -13 -13 -13 -12 -12
-9 -9 -9 -10 -10 -10 -11 -11 -11 -12 -12 -12 -12 -12 -12 -12 -12 -12 -12 -12 -12 -13 -13 -14 -14 -14 -14 -14 -14 -14 -14 -15 -15 -14 -14 -14 -14 -14 -14 -14 -14 -13 -13 -12
-9 -9 -9 -10 -10 -10 -11 -11 -11 -12 -12 -12 -12 -12 -12 -12 -12 -12 -12 -12 -12 -13 -13 -14 -14 -14 -14 -14 -15 -15 -15 -15 -14 -14 -14 -14 -14 -14 -14 -14 -14 -14 -14 -13
-9 -9 -9 -9 -10 -10 -10 -11 -11 -12 -12 -12 -12 -12 -12 -12 -12 -12 -13 -13 -13 -13 -14 -14 -15 -15 -15 -15 -15 -15 -15 -15 -15 -14 -14 -14 -14 -14 -14 -14 -14 -14 -14 -14
-9 -9 -10 -10 -10 -9 -10 -11 -11 -12 -12 -12 -12 -12 -12 -12 -13 -13 -13 -13 -13 -13 -14 -14 -15 -15 -15 -15 -15 -15 -15 -15 -15 -15 -15 -14 -14 -14 -14 -14 -14 -14 -14 -14
-9 -9 -9 -9 -9 -10 -10 -10 -11 -12 -12 -12 -12 -12 -13 -13 -13 -13 -13 -13 -13 -14 -14 -14 -14 -15 -15 -15 -15 -15 -15 -15 -15 -15 -15 -15 -14 -14 -14 -14 -14 -14 -14 -14
-9 -9 -9 -9 -10 -10 -10 -10 -11 -12 -12 -13 -13 -13 -13 -13 -13 -13 -13 -13 -14 -14 -14 -14 -14 -15 -15 -15 -15 -15 -15 -15 -15 -15 -15 -15 -15 -15 -14 -14 -14 -14 -14 -14
-9 -9 -9 -9 -9 -10 -10 -11 -11 -12 -13 -13 -13 -13 -13 -13 -14 -13 -14 -14 -14 -14 -14 -14 -15 -15 -15 -15 -15 -15 -16 -16 -15 -15 -15 -15 -15 -15 -15 -15 -14 -14 -14 -14